Humidity-temperature Sensor

Selected Measurement Type: Air Temperature

 
Air Temperature [°C]     6 entries per hour
Showing data from 3/15/2015 (00:00:00 Z) to 3/12/2015 (00:01:00 Z)
Previous Next [ Day | 3-Days | 7-Days ]
First Last
Prev [ Day | 3-Days | 7-Days ] Next
First Last

Start Time:     :
End Time:     :     
Time (in GMT) :00 :50 :40 :30 :20 :10
Previous Next [ Day | 3-Days | 7-Days ]
First Last
Prev [ Day | 3-Days | 7-Days ] Next
First Last


123 => good data
MM => data is determined as missing
-- => data not received/configured
Back to Top Back to Top
3/15/2015 00:00 to 23:10 26.09 26.13 26.01 25.93 26.16 26.02
3/14/2015 23:00 to 22:10 26.03 25.85 25.92 26.03 25.93 25.98
3/14/2015 22:00 to 21:10 25.89 25.86 25.88 25.81 25.75 25.65
3/14/2015 21:00 to 20:10 25.68 25.88 25.81 25.92 25.92 25.73
3/14/2015 20:00 to 19:10 25.67 25.59 25.63 25.51 25.34 25.21
3/14/2015 19:00 to 18:10 26.09 26.01 25.95 26.19 26.06 26.04
3/14/2015 18:00 to 17:10 25.96 26.20 26.67 26.59 26.32 26.20
3/14/2015 17:00 to 16:10 26.27 25.97 26.18 25.82 25.58 25.44
3/14/2015 16:00 to 15:10 25.30 25.16 25.08 24.90 24.69 24.48
3/14/2015 15:00 to 14:10 24.40 24.18 24.08 24.05 23.90 24.09
3/14/2015 14:00 to 13:10 24.13 24.44 24.95 24.95 25.04 24.97
3/14/2015 13:00 to 12:10 24.97 24.85 24.88 24.69 24.92 24.72
3/14/2015 12:00 to 11:10 24.75 24.69 24.62 24.68 24.91 24.69
3/14/2015 11:00 to 10:10 24.72 24.56 24.76 24.86 25.08 25.52
3/14/2015 10:00 to 9:10 25.94 26.14 26.41 26.26 26.11 26.02
3/14/2015 09:00 to 8:10 26.23 26.20 26.14 26.16 26.11 25.89
3/14/2015 08:00 to 7:10 26.11 25.95 25.84 25.78 25.85 25.53
3/14/2015 07:00 to 6:10 25.42 25.30 25.31 25.13 25.14 25.46
3/14/2015 06:00 to 5:10 25.43 25.74 25.96 25.99 25.89 26.75
3/14/2015 05:00 to 4:10 27.11 27.10 26.99 27.05 26.98 26.91
3/14/2015 04:00 to 3:10 26.97 26.93 26.87 26.95 26.89 26.86
3/14/2015 03:00 to 2:10 26.84 26.84 26.85 26.92 26.96 26.86
3/14/2015 02:00 to 1:10 26.93 26.88 26.90 26.89 26.89 26.90
3/14/2015 01:00 to 0:10 26.91 26.90 26.95 26.88 26.86 26.95
3/14/2015 00:00 to 23:10 26.94 26.87 26.97 27.01 26.98 26.90
3/13/2015 23:00 to 22:10 26.95 26.98 27.04 27.01 26.89 26.82
3/13/2015 22:00 to 21:10 26.82 26.85 26.89 26.81 26.97 26.80
3/13/2015 21:00 to 20:10 26.82 26.78 26.90 26.79 26.95 26.73
3/13/2015 20:00 to 19:10 26.89 26.79 26.79 26.79 26.85 26.82
3/13/2015 19:00 to 18:10 26.75 26.76 26.79 26.91 26.79 26.85
3/13/2015 18:00 to 17:10 26.90 26.95 26.85 26.95 26.97 26.90
3/13/2015 17:00 to 16:10 26.96 26.91 27.04 26.90 27.07 26.92
3/13/2015 16:00 to 15:10 26.75 27.05 26.97 27.05 26.52 26.60
3/13/2015 15:00 to 14:10 26.70 26.41 26.49 26.42 26.39 26.41
3/13/2015 14:00 to 13:10 26.39 26.41 26.46 26.35 26.33 26.42
3/13/2015 13:00 to 12:10 26.38 26.38 26.47 26.40 26.37 26.44
3/13/2015 12:00 to 11:10 26.42 26.35 26.37 26.36 26.36 26.43
3/13/2015 11:00 to 10:10 26.36 26.41 26.49 26.50 26.35 26.48
3/13/2015 10:00 to 9:10 26.45 26.43 26.46 26.39 26.45 26.37
3/13/2015 09:00 to 8:10 26.50 26.54 26.47 26.50 26.55 26.54
3/13/2015 08:00 to 7:10 26.64 26.44 26.56 26.49 26.56 26.52
3/13/2015 07:00 to 6:10 26.57 26.47 26.54 26.47 26.59 26.57
3/13/2015 06:00 to 5:10 26.54 26.53 26.66 26.55 26.59 26.65
3/13/2015 05:00 to 4:10 26.60 26.61 26.60 26.65 26.67 26.67
3/13/2015 04:00 to 3:10 26.60 26.67 26.60 26.61 26.59 26.64
3/13/2015 03:00 to 2:10 26.61 26.67 26.66 26.60 26.63 26.69
3/13/2015 02:00 to 1:10 26.68 26.68 26.75 26.68 26.67 26.75
3/13/2015 01:00 to 0:10 26.73 26.70 26.75 26.73 26.79 26.69
3/13/2015 00:00 to 23:10 26.74 26.79 26.80 26.81 26.84 26.84
3/12/2015 23:00 to 22:10 26.72 26.84 26.64 26.75 26.66 26.73
3/12/2015 22:00 to 21:10 26.77 26.67 26.80 26.71 26.80 26.70
3/12/2015 21:00 to 20:10 26.69 26.75 26.75 26.73 26.69 26.73
3/12/2015 20:00 to 19:10 26.72 26.74 26.68 26.72 26.79 26.77
3/12/2015 19:00 to 18:10 26.71 26.73 26.81 26.83 26.82 26.91
3/12/2015 18:00 to 17:10 26.86 26.98 26.83 26.88 27.07 26.97
3/12/2015 17:00 to 16:10 26.99 26.87 26.90 27.03 26.89 26.87
3/12/2015 16:00 to 15:10 26.75 26.72 26.79 26.64 26.86 26.60
3/12/2015 15:00 to 14:10 26.52 26.57 26.54 26.43 26.47 26.45
3/12/2015 14:00 to 13:10 26.58 26.56 26.50 26.51 26.47 26.49
3/12/2015 13:00 to 12:10 26.54 26.48 26.46 26.49 26.41 26.42
3/12/2015 12:00 to 11:10 26.43 26.48 26.37 26.47 26.49 26.37
3/12/2015 11:00 to 10:10 26.49 26.42 26.52 26.50 26.35 26.64
3/12/2015 10:00 to 9:10 26.45 26.37 26.51 26.38 26.56 26.48
3/12/2015 09:00 to 8:10 26.53 26.46 26.52 26.58 26.62 26.54
3/12/2015 08:00 to 7:10 26.63 26.71 26.66 26.63 26.73 26.71
3/12/2015 07:00 to 6:10 26.74 26.69 26.72 26.90 26.78 26.75
3/12/2015 06:00 to 5:10 26.73 26.85 26.78 26.75 26.79 26.87
3/12/2015 05:00 to 4:10 26.92 26.85 26.81 26.84 26.84 26.86
3/12/2015 04:00 to 3:10 26.89 26.89 26.80 26.72 26.85 26.88
3/12/2015 03:00 to 2:10 26.81 26.91 26.79 26.81 26.86 26.89
3/12/2015 02:00 to 1:10 26.86 26.84 26.77 26.84 26.81 26.86
3/12/2015 01:00 to 0:10 26.77 26.77 26.78 26.86 26.78 26.85